OE1HTB-13 Weather Reports


Display with metric or nautical units.
time (UTC)temp
F
wind
direction
speed
MPH
gust
MPH
rain 1hr
in
rain 24hr
in
rain mn
in
humidity
%
barometer
mb
20260507181615 55 38 1.0 3.0 0.00 0.05 0.05 90 1012.4
20260507180114 55 315 0.0 2.0 0.00 0.05 0.05 90 1012.5
20260507174614 55 325 0.0 1.0 0.00 0.05 0.05 90 1012.4
20260507173114 55 325 0.0 1.0 0.00 0.05 0.05 89 1012.2
20260507171614 55 325 1.0 2.0 0.02 0.05 0.05 88 1012.0
20260507170113 56 318 1.0 3.0 0.05 0.05 0.05 87 1011.9
20260507164613 56 319 2.0 3.0 0.05 0.05 0.05 85 1011.8
20260507163113 58 331 2.0 5.0 0.05 0.05 0.05 81 1011.6
20260507161613 61 144 2.0 6.0 0.03 0.03 0.03 71 1011.5
20260507160113 63 277 1.0 5.0 0.00 0.00 0.00 60 1011.6
20260507154613 65 338 1.0 4.0 0.00 0.00 0.00 57 1011.4
20260507153114 65 120 2.0 7.0 0.00 0.00 0.00 55 1011.2
20260507151612 66 131 4.0 7.0 0.00 0.00 0.00 52 1011.1
20260507150112 67 147 2.0 8.0 0.00 0.00 0.00 50 1011.0
20260507144612 68 148 2.0 7.0 0.00 0.00 0.00 48 1010.9
20260507143112 70 125 3.0 8.0 0.00 0.00 0.00 45 1010.8
20260507141612 69 130 2.0 5.0 0.00 0.00 0.00 48 1010.9
20260507140112 70 148 2.0 6.0 0.00 0.00 0.00 45 1010.8
20260507134611 71 173 2.0 5.0 0.00 0.00 0.00 46 1010.9
20260507133111 69 122 2.0 6.0 0.00 0.00 0.00 44 1010.9
20260507131611 69 153 2.0 6.0 0.00 0.00 0.00 47 1011.1
20260507130111 67 162 2.0 6.0 0.00 0.00 0.00 50 1011.2
20260507124612 67 136 1.0 3.0 0.00 0.00 0.00 49 1011.2
20260507123111 68 218 2.0 7.0 0.00 0.00 0.00 46 1011.3
20260507121611 68 177 1.0 5.0 0.00 0.00 0.00 50 1011.3
20260507120111 65 336 2.0 8.0 0.00 0.00 0.00 49 1011.6
20260507114610 66 110 2.0 7.0 0.00 0.00 0.00 51 1011.5
20260507113110 65 158 2.0 8.0 0.00 0.00 0.00 53 1011.6
20260507111611 66 340 2.0 8.0 0.00 0.00 0.00 53 1011.6
20260507110110 66 87 2.0 8.0 0.00 0.00 0.00 52 1011.8
20260507104610 66 360 2.0 10.0 0.00 0.00 0.00 54 1011.8
20260507103115 65 43 3.0 9.0 0.00 0.00 0.00 52 1012.0
20260507101614 64 248 2.0 7.0 0.00 0.00 0.00 52 1012.0
20260507100114 64 284 1.0 8.0 0.00 0.00 0.00 56 1012.1
20260507094614 64 282 2.0 6.0 0.00 0.00 0.00 56 1011.9
20260507093114 63 84 2.0 7.0 0.00 0.00 0.00 58 1011.7
20260507091614 62 5 3.0 8.0 0.00 0.00 0.00 59 1011.6
20260507090114 62 180 3.0 10.0 0.00 0.00 0.00 57 1011.3
20260507084614 62 110 3.0 13.0 0.00 0.00 0.00 60 1011.1
20260507083113 64 125 3.0 15.0 0.00 0.00 0.00 58 1010.8
20260507081613 60 151 3.0 9.0 0.00 0.00 0.00 60 1010.7
20260507080113 59 75 3.0 10.0 0.00 0.00 0.00 60 1010.7
20260507074613 59 80 2.0 9.0 0.00 0.00 0.00 65 1010.6
20260507073113 59 5 3.0 9.0 0.00 0.00 0.00 64 1010.3
20260507071613 58 303 3.0 11.0 0.00 0.00 0.00 64 1010.3
20260507070112 56 42 3.0 9.0 0.00 0.00 0.00 66 1010.1
20260507064612 56 67 3.0 11.0 0.00 0.00 0.00 67 1010.1
20260507063112 56 121 4.0 12.0 0.00 0.00 0.00 67 1010.1
20260507061612 57 237 4.0 12.0 0.00 0.00 0.00 67 1009.9
20260507060112 56 271 4.0 12.0 0.00 0.00 0.00 67 1009.8
20260507054613 56 355 3.0 14.0 0.00 0.00 0.00 67 1009.5
20260507053112 56 117 2.0 11.0 0.00 0.00 0.00 68 1009.4
20260507051612 55 165 3.0 13.0 0.00 0.00 0.00 69 1009.3
20260507050112 55 132 3.0 11.0 0.00 0.00 0.00 69 1009.2
20260507044611 55 221 3.0 10.0 0.00 0.00 0.00 69 1008.9
20260507043111 55 236 3.0 11.0 0.00 0.00 0.00 70 1008.9
20260507041611 55 14 4.0 14.0 0.00 0.00 0.00 69 1008.7
20260507040111 55 329 4.0 9.0 0.00 0.00 0.00 70 1008.5
20260507034611 55 10 3.0 12.0 0.00 0.00 0.00 70 1008.5
20260507033111 55 148 3.0 8.0 0.00 0.00 0.00 69 1008.5
20260507031611 55 84 4.0 8.0 0.00 0.00 0.00 70 1008.4
20260507030110 55 355 3.0 15.0 0.00 0.00 0.00 69 1008.4
20260507024610 56 24 2.0 7.0 0.00 0.00 0.00 69 1008.1
20260507023110 56 307 3.0 9.0 0.00 0.00 0.00 69 1008.0
20260507021610 56 92 3.0 8.0 0.00 0.00 0.00 71 1008.0
20260507020110 56 179 2.0 7.0 0.00 0.00 0.00 72 1007.9
20260507014610 56 355 3.0 9.0 0.00 0.00 0.00 73 1007.9
20260507013110 56 193 2.0 9.0 0.00 0.00 0.00 73 1007.8
20260507011609 57 269 3.0 12.0 0.00 0.00 0.00 72 1007.7
20260507010109 57 355 3.0 8.0 0.00 0.00 0.00 72 1007.6
20260507004609 57 331 3.0 8.0 0.00 0.00 0.00 71 1007.4
20260507003114 58 69 2.0 9.0 0.00 0.00 0.00 71 1007.3
20260507001614 58 39 3.0 11.0 0.00 0.00 0.00 71 1007.3
20260507000114 58 342 2.0 9.0 0.00 0.00 0.00 71 1007.1
20260506234613 59 114 3.0 9.0 0.00 0.00 0.00 72 1006.9
20260506233114 59 30 3.0 13.0 0.00 0.00 0.00 74 1006.9
20260506231613 59 67 4.0 12.0 0.00 0.00 0.00 74 1006.7
20260506230113 59 259 3.0 11.0 0.00 0.00 0.00 73 1006.5
20260506224613 60 360 3.0 11.0 0.00 0.00 0.00 70 1006.3
20260506223113 60 228 3.0 8.0 0.00 0.00 0.00 67 1006.2
20260506221614 60 5 3.0 11.0 0.00 0.00 0.00 67 1005.6
20260506220113 60 94 2.0 7.0 0.00 0.00 0.00 67 1005.3
20260506214613 60 153 0.0 1.0 0.00 0.00 0.00 69 1005.0
20260506213113 61 200 0.0 2.0 0.00 0.00 0.00 67 1004.7
20260506211612 61 140 1.0 5.0 0.00 0.00 0.00 65 1004.5
20260506210112 62 119 1.0 9.0 0.00 0.00 0.00 64 1004.3
20260506204612 63 124 3.0 11.0 0.00 0.00 0.00 64 1004.1
20260506203112 63 181 4.0 10.0 0.00 0.00 0.00 62 1004.0
20260506201612 63 118 5.0 11.0 0.00 0.00 0.00 62 1003.8
20260506200112 64 187 4.0 11.0 0.00 0.00 0.00 61 1003.7
20260506194612 64 81 4.0 13.0 0.00 0.00 0.00 61 1003.6
20260506193113 65 115 5.0 16.0 0.00 0.00 0.00 60 1003.3
20260506191611 65 94 5.0 14.0 0.00 0.00 0.00 59 1003.3
20260506190111 65 123 4.0 13.0 0.00 0.00 0.00 58 1003.1
20260506184611 66 123 5.0 15.0 0.00 0.00 0.00 57 1003.0
20260506183111 66 219 6.0 17.0 0.00 0.00 0.00 56 1002.7